CLASSIFICA

GRAN FONDO DELLE SORGENTI

Nocera Umbra

(06/05/2018)

DIVISIONI:
GF     MF     CLASSIFICA:   ASSOLUTA    M     F    
CATEGORIE:   TUTTE    |   ELITE   |   ELITE SPORT   |   JUNIOR M   |   M OVER   |   M1   |   M2   |   M3   |   M4   |   M5   |   M6   |   W1   |   W2  
FILTRO:
  Atleta      Team        Pulisci       Atleti classificati GF: 180  

Cliccare sulle colonne per cambiare ordinamento Pagina:   | 1 | | 2 | | 3 | | 4 |
Azioni Pos. M/F Cat. P.Cat. Pett Naz Atleta Squadra Tempo Distacco in tempo Distacco in metri Km/h
11ELITE SPORT163BALLONI ALFREDOASD CUSTOM4.IT CYCLING TEAM02:09:27 00:00:00 0 19.467
22ELITE SPORT288CARACCIOLO LEONARDOASD SC CENTRO BICI TEAM TERNI02:10:45 00:01:18 417 19.273
33ELITE12RIDOLFI RICCARDOCIB MONTANINI ECO FUTURA02:11:57 00:02:30 795 19.098
44M41282GIOVANE SILVIOUC PETRIGNANO ASD02:13:20 00:03:53 1.223 18.900
55M42227PEZZOTTI ANDREAASD TEAM BIKE CIVITAVECCHIA02:16:32 00:07:05 2.178 18.457
66ELITE SPORT3116DI EMIDIO GIANLUCACASTELTROSINO SUPERBIKE02:17:01 00:07:34 2.319 18.392
77M11280VITALE FRANCESCOASD GUSTATREVI MTB02:17:49 00:08:22 2.549 18.285
88M12287FABBRIZI LUCAAVIS BIKE CINGOLI02:19:57 00:10:30 3.151 18.006
99M21258SASSINI MARCOCASTELTROSINO SUPERBIKE02:19:57 00:10:30 3.151 18.006
1010M2277BONINSEGNI LUCATEAM SCOTT PASQUINI STELLA AZZURRA02:21:02 00:11:35 3.449 17.868
1111ELITE SPORT4106COMMODI VALENTINOASD MC2 BIKE02:21:13 00:11:46 3.499 17.845
1212ELITE27DESANTIS ALESSANDROMTB CLUB SPOLETO02:22:06 00:12:39 3.738 17.734
1313M13475MISCHIANTI CRISTIANDIEFFE BIKE TEAM02:22:08 00:12:41 3.747 17.730
1414M14199MORONCI CLAUDIOBIKE THERAPY A.S.D.02:22:10 00:12:43 3.756 17.726
1515M31473SIRCHI FRANCESCOMTB CASTIGLION DEL LAGO02:22:17 00:12:50 3.788 17.711
1616M23124FARINELLI PAOLOUC PETRIGNANO ASD02:25:06 00:15:39 4.529 17.367
1717M24165LAUDATI GRAZIANOASD FARAM CYCLING TEAM02:25:11 00:15:44 4.551 17.357
1818M15162LALONI FABRIZIOUC PETRIGNANO ASD02:25:25 00:15:58 4.611 17.330
1919ELITE38MARIANI ANTONIOBIKE THERAPY A.S.D.02:25:48 00:16:21 4.709 17.284
2020M32159GRELLI EMANUELESC PARLESCA TEAM MOTORPOINT02:26:00 00:16:33 4.760 17.260
2121M25278VENTURINI SIMONEASD GUSTATREVI MTB02:26:46 00:17:19 4.955 17.170
2222M43202MOSTARDA DARIOMOUNTAN BIKE CLUB RIETI02:27:04 00:17:37 5.031 17.135
2323M51288MASSARUCCI ERNELIOTRIONO RACING MEDICAL FREM02:27:07 00:17:40 5.043 17.129
2424M26224PETRINI STEFANOASD MC2 BIKE02:27:29 00:18:02 5.135 17.087
2525M16102CIUCCI MARCOASD MTB CASTIGLIONE DEL LAGO02:27:39 00:18:12 5.177 17.067
2626M52135FROSINI FABIOG.S. TESTI CICLI A.S.D.02:27:50 00:18:23 5.222 17.046
2727ELITE SPORT5484SILVIONI MATTEOUC PETRIGNANO ASD02:28:27 00:19:00 5.375 16.975
2828M17273TOMASSOLI DIEGODIEFFE BIKE TEAM02:28:43 00:19:16 5.441 16.945
2929M4451AGOSTINELLI LUCAUC PETRIGNANO ASD02:29:46 00:20:19 5.697 16.826
3030M45186MARIOTTI FRANCESCOVELO CLUB CICLI CINGOLANI ASD02:30:02 00:20:35 5.762 16.796
3131M46112CUCCHIARINI RINALDO LUCAA.S.D. BIKERS NOCERA UMBRA02:30:04 00:20:37 5.770 16.793
3232M3391CERNICCHI WALTER GIANNIDIEFFE BIKE TEAM02:30:06 00:20:39 5.778 16.789
3333M53155GORIETTI MARCOUC PETRIGNANO ASD02:31:14 00:21:47 6.049 16.663
3434ELITE SPORT6650PAUSELLI FILIPPOGS AVIS AMELIA ASD02:31:23 00:21:56 6.085 16.647
3535M54192MENGHINI GIAMPIEROVELO CLUB CICLI CINGOLANI ASD02:31:29 00:22:02 6.108 16.636
3636M55137GALLI LANFRANCOUC PETRIGNANO ASD02:32:00 00:22:33 6.230 16.579
3737M34190MASTRINI MARCOA.S.D. BIKERS NOCERA UMBRA02:32:36 00:23:09 6.371 16.514
3838M4758ANDREANI MICHELEG.S. TESTI CICLI A.S.D.02:33:31 00:24:04 6.584 16.415
3939M61200MOSCHETTI MARIOSC PARLESCA TEAM MOTORPOINT02:33:31 00:24:04 6.584 16.415
4040M18655CEPPITELLI SIMONEG.S. TESTI CICLI A.S.D.02:33:31 00:24:04 6.584 16.415
4141M19182MARCUCCI MIRCOASD SC CENTRO BICI TEAM TERNI02:33:31 00:24:04 6.584 16.415
4242M48121EDOARDINI MAURIZIOMOUNTAN BIKE CLUB RIETI02:34:39 00:25:12 6.843 16.295
4343M27195MISCIO DAMIANOLAKE BIKE TEAM ASD02:35:18 00:25:51 6.990 16.227
4444M35183MARIANANTONI GIOVANNIMOUNTAN BIKE CLUB RIETI02:36:05 00:26:38 7.166 16.145
4545M4952AGOSTINI ULDERICOMTB CLUB SPOLETO02:36:07 00:26:40 7.174 16.142
4646JUNIOR M15FERILLI MATTIAG.S. TESTI CICLI A.S.D.02:36:08 00:26:41 7.177 16.140
4747M110268SPINI STEFANOUMBERTIDE CYCLING TEAM02:36:09 00:26:42 7.181 16.138
4848M36253RUFINI LUCIANOMOUNTAN BIKE CLUB RIETI02:36:55 00:27:28 7.351 16.060
4949M5666BAROLA ROBERTOUC PETRIGNANO ASD02:36:58 00:27:31 7.362 16.054
5050M410108COZZARI GERMANOUC PETRIGNANO ASD02:37:18 00:27:51 7.436 16.020
5151M62161GUERRA PAOLOASD BEST BIKE02:37:23 00:27:56 7.454 16.012
5252M57243RAGNI WALTERMOUNTAN BIKE CLUB RIETI02:37:47 00:28:20 7.541 15.971
5353M37156GRANTURCHELLI LORENZOUMBERTIDE CYCLING TEAM02:38:31 00:29:04 7.701 15.897
5454M38132FODARONI MAUROG.S. TESTI CICLI A.S.D.02:39:02 00:29:35 7.812 15.846
5555M28259SCARPONI CLAUDIOMTB CLUB SPOLETO02:39:54 00:30:27 7.998 15.760
5656M41160ARCALENI CARLOUMBERTIDE CYCLING TEAM02:40:09 00:30:42 8.051 15.735
5757M58158GRAZIUSO RAFFAELESC PARLESCA TEAM MOTORPOINT02:40:16 00:30:49 8.075 15.724
5858M412476MANCINI MASSIMODIEFFE BIKE TEAM02:41:03 00:31:36 8.240 15.647
5959M3980BRUGNONI VALERIOSC PARLESCA TEAM MOTORPOINT02:41:21 00:31:54 8.303 15.618
6060M29254SABETTA DANIELEMOUNTAN BIKE CLUB RIETI02:41:55 00:32:28 8.421 15.564
6161M111127FERRONI ALESSANDROASD FARAM CYCLING TEAM02:41:55 00:32:28 8.421 15.564
6262M210482PIERVISANI PAOLOASD SC CENTRO BICI TEAM TERNI02:41:56 00:32:29 8.425 15.562
6363ELITE SPORT7245RIGHETTI FEDERICOG.S. TESTI CICLI A.S.D.02:41:57 00:32:30 8.428 15.560
6464M41389CARPINE MAURIZIOASD ASC CICLI CLEMENTI02:42:12 00:32:45 8.480 15.536
6565M63163LANCIA LEONARDOMTB CLUB SPOLETO02:42:16 00:32:49 8.494 15.530
6666M41470BIANCHINI DONATELLOASD MTB CASTIGLIONE DEL LAGO02:42:36 00:33:09 8.562 15.498
6767M415281ZANCHI ROBERTORUOTA LIBERA A.S.D.02:43:15 00:33:48 8.695 15.436
6868M59233PISTELLA ANTONIOASD LARIS BIKE02:43:26 00:33:59 8.733 15.419
6969M416119DOLCIOTTI MASSIMOASD LE VELO02:43:29 00:34:02 8.743 15.414
7070M510203NAPOLINI FRANCOMTB CLUB SPOLETO02:43:38 00:34:11 8.773 15.400
7171M211208NOTTOLI ALESSIOUMBERTIDE CYCLING TEAM02:44:22 00:34:55 8.922 15.332
7272M21271BINI FABRIZIOASD GUSTATREVI MTB02:44:37 00:35:10 8.972 15.308
7373M417246RISI MAURIZIOMTB CLUB SPOLETO02:48:08 00:38:41 9.663 14.988
7474M112276VALERI FABIOMOUNTAN BIKE CLUB RIETI02:48:24 00:38:57 9.714 14.964
7575M213204NARDI OMARASD MC2 BIKE02:49:03 00:39:36 9.838 14.907
7676M214267SPIGARELLI MICHELEASD VELO CLUB RACING ASSISI BASTIA02:49:06 00:39:39 9.848 14.902
7777ELITE SPORT8198MONTI FABIOCASTELTROSINO SUPERBIKE02:49:08 00:39:41 9.854 14.900
7878ELITE SPORT9234POLI ANDREACASTELTROSINO SUPERBIKE02:49:08 00:39:41 9.854 14.900
7979M113138GALLI MARINOCASTELTROSINO SUPERBIKE02:49:08 00:39:41 9.854 14.900
8080M41898CIARMA FABRIZIOCASTELTROSINO SUPERBIKE02:49:08 00:39:41 9.854 14.900
8181M114146GIANNETTI ELIACASTELTROSINO SUPERBIKE02:49:19 00:39:52 9.889 14.883
8282M310213PAOLINO GIUSEPPEGS GRIFO BIKE PERUGIA ASD02:49:43 00:40:16 9.964 14.848
8383M31169BERARDI GIORGIOVELO CLUB CICLI CINGOLANI ASD02:50:13 00:40:46 10.058 14.805
8484M11554ALUNNI GIORGIOUMBERTIDE CYCLING TEAM02:50:36 00:41:09 10.130 14.771
8585JUNIOR M24FEDERICI SIMONECASTELTROSINO SUPERBIKE02:50:37 00:41:10 10.133 14.770
8686M312173LUZI LUIGICASTELTROSINO SUPERBIKE02:50:37 00:41:10 10.133 14.770
8787M21568BENEDETTI ALESSANDROMTB CLUB SPOLETO02:51:36 00:42:09 10.316 14.685
8888ELITE SPORT10653DONATI MIRKOASD G.S. PEDALE SPELLANO02:52:50 00:43:23 10.542 14.581
8989ELITE SPORT11223PETRELLI GLAUCOCASTELTROSINO SUPERBIKE02:53:53 00:44:26 10.732 14.493
9090M6473BIROCCHI SANDROASD BICI CLUB SPOLETO CASTELLANI IMPIANTI02:53:55 00:44:28 10.738 14.490
9191M OVER1654DI VITA FRANCOAVIS SASSOFERRATO02:53:59 00:44:32 10.750 14.484
9292M511126FERRETTI ENZOALL MOUNTAIN FOLIGNO02:54:12 00:44:45 10.789 14.466
9393M OVER259ANGELETTI PIEROA.S.D. TEAM BIKE MIRANDA02:54:21 00:44:54 10.816 14.454
9494M419263SERGIACOMI MASSIMOCASTELTROSINO SUPERBIKE02:55:54 00:46:27 11.090 14.326
9595M512100CICIONI GIULIANOMOUNTAN BIKE CLUB RIETI02:56:02 00:46:35 11.114 14.316
9696M313219PAUSILLO MASSIMILIANOASD LARIS BIKE02:57:40 00:48:13 11.398 14.184
9797M314109CREZZINI EMANUELEASD LARIS BIKE02:58:04 00:48:37 11.467 14.152
9898M513241PROIETTI GILBERTOGS AVIS AMELIA ASD02:58:05 00:48:38 11.469 14.151
9999M420152GIOVANNELLI ANTONIOMOUNTAN BIKE CLUB RIETI02:58:11 00:48:44 11.487 14.143
100100M315201MOSCIONI ALESSIOUMBERTIDE CYCLING TEAM02:58:35 00:49:08 11.555 14.111
101101M316140GENTILI ANDREAASD FARAM CYCLING TEAM02:58:53 00:49:26 11.606 14.087
102102M514148GIGLIARELLI CLAUDIOUMBERTIDE CYCLING TEAM02:59:00 00:49:33 11.626 14.078
103103M65279VIOLA ERNESTOCICLOTURISTICA MASSA MARTANA02:59:10 00:49:43 11.654 14.065
104104M317266SPEZIALI JURIASD VELO CLUB RACING ASSISI BASTIA02:59:40 00:50:13 11.738 14.026
105105M515244RAGUGINI ANDREA PIOAVIS GUALDO TADINO03:00:24 00:50:57 11.861 13.969
106106M318196MONACELLI GIUSEPPEAVIS BIKE CINGOLI03:00:46 00:51:19 11.923 13.941
1071W11191MAZZORANA SARAA.S.D. TEAM BIKE MIRANDA03:02:36 00:53:09 12.225 13.801
108107ELITE SPORT1257AMELI GERARDOCASTELTROSINO SUPERBIKE03:02:54 00:53:27 12.273 13.778
109108M216110CROCIONE DIEGOGS AVIS AMELIA ASD03:03:33 00:54:06 12.379 13.729
110109M421651CASSETTA MARCOMC2 BIKE03:03:43 00:54:16 12.406 13.717
111110M116248RITI RICCARDOCASTELTROSINO SUPERBIKE03:04:04 00:54:37 12.462 13.691
112111M422237POSSENTI FABIODISLIVELLO CAMP ASD03:04:32 00:55:05 12.537 13.656
113112M319139GASPARI EMILIOCASTELTROSINO SUPERBIKE03:05:55 00:56:28 12.756 13.555
114113M516185MARIOLI DANILOCICLO CLUB DERUTA03:06:05 00:56:38 12.782 13.542
115114M423656FERRONI GIUSEPPEAVIS PRATOVECCHIO-ERREPI-LEE COUGAN03:06:06 00:56:39 12.785 13.541
116115M517177MARABISSI FRANCESCOASD LARIS BIKE03:06:06 00:56:39 12.785 13.541
117116M21796CHIERCHINI MARCOASD LARIS BIKE03:06:06 00:56:39 12.785 13.541
118117M320661POSSENTI DANILOASD BIKE RIDERS SABINI03:06:23 00:56:56 12.829 13.521
119118M117210OTTONI FABIOCASTELTROSINO SUPERBIKE03:07:16 00:57:49 12.967 13.457
120119M66115DE SANTIS DARIOCASTELTROSINO SUPERBIKE03:07:16 00:57:49 12.967 13.457
121120ELITE SPORT1367BAZZUCCHI GIACOMOLAKE BIKE TEAM ASD03:07:19 00:57:52 12.974 13.453
122121M424255SALSERI PERLUIGIDISLIVELLO CAMP ASD03:07:24 00:57:57 12.987 13.447
123122ELITE SPORT14154GLADIOLI SIMONECASTELTROSINO SUPERBIKE03:07:24 00:57:57 12.987 13.447
124123M42562BACCI QUINTILIOA.S.D. TEAM MATE'03:07:43 00:58:16 13.036 13.425
125124M426130FIORAVANTI PEPPINOCASTELTROSINO SUPERBIKE03:07:46 00:58:19 13.044 13.421
126125M518105COLOMBO DAVIDEMOUNTAN BIKE CLUB RIETI03:08:13 00:58:46 13.113 13.389
127126M427179MARANI MARCOG.S. TESTI CICLI A.S.D.03:09:08 00:59:41 13.253 13.324
128127M428101CIPOLLINI WALTERCASTELTROSINO SUPERBIKE03:11:05 01:01:38 13.546 13.188
129128M118122ELEUTERI DOMENICOCASTELTROSINO SUPERBIKE03:11:09 01:01:42 13.556 13.183
130129M67176MANCINI UGOSC PARLESCA TEAM MOTORPOINT03:11:32 01:02:05 13.613 13.157
131130ELITE SPORT15485BASTIONI FEDERICOMTB CLUB RIETI03:11:52 01:02:25 13.663 13.134
132131M68239PRESCIUTTI ROBERTOCASTELTROSINO SUPERBIKE03:12:46 01:03:19 13.795 13.073
133132M321211PALAZZETTI ANTONIOUMBERTIDE CYCLING TEAM03:13:58 01:04:31 13.969 12.992
134133M519128FILONZI FABRIZIOASD IT AUCTION TEAM03:14:08 01:04:41 13.993 12.981
135134ELITE SPORT16660PIRELLI FILIPPOASD BEST BIKE03:16:27 01:07:00 14.324 12.828
136135M218153GIULIANI FABIOCASTELTROSINO SUPERBIKE03:16:36 01:07:09 14.345 12.818
137136M429481MENTA SALVATORELA BASE - TERNI03:17:01 01:07:34 14.403 12.791
138137M52093CERQUAGLIA MARIOUC PETRIGNANO ASD03:18:08 01:08:41 14.559 12.719
139138M119212PANNAIOLI MATTEOCICLO CLUB DERUTA03:18:44 01:09:17 14.642 12.680
1402W12175MAIOTTI MARINACICLO CLUB DERUTA03:19:41 01:10:14 14.772 12.620
141139M322275TRABALZA CRISTIANOPOPPINS BIKE03:23:19 01:13:52 15.258 12.395
142140M430235POLI ANDREA DUILIOCASTELTROSINO SUPERBIKE03:24:19 01:14:52 15.389 12.334
143141M323658MATADOZZI MARCOASD BEST BIKE03:25:18 01:15:51 15.517 12.275
144142M431271TARDOCCHI MASSIMILIANOMTB CLUB SPOLETO03:25:46 01:16:19 15.577 12.247
145143M219260SCATENA ANDREASC PARLESCA TEAM MOTORPOINT03:26:29 01:17:02 15.669 12.204
146144M220178MARAMIGI ALESSANDROASD MC2 BIKE03:28:26 01:18:59 15.915 12.090
147145M221264SEVERINI ALESSIOUMBERTIDE CYCLING TEAM03:29:33 01:20:06 16.054 12.026
148146ELITE SPORT17228PEZZOTTI GABRIELEMOUNTAN BIKE CLUB RIETI03:29:51 01:20:24 16.091 12.009
149147M6985CALZOLARI CLAUDIOUC PETRIGNANO ASD03:29:59 01:20:32 16.107 12.001
150148M222231PIETRI ALESSIOPOPPINS BIKE03:30:20 01:20:53 16.151 11.981
151149M OVER3657BAZZUCCHI GIULIANOASD CUCCO IN BIKE03:32:10 01:22:43 16.374 11.878
152150M43265BARBANERA TOMMASOG.S. TESTI CICLI A.S.D.03:32:55 01:23:28 16.464 11.836
153151ELITE SPORT18142GENTILI FABIOCASTELTROSINO SUPERBIKE03:34:27 01:25:00 16.647 11.751
154152M12086CAMELI EMIDIOCASTELTROSINO SUPERBIKE03:34:27 01:25:00 16.647 11.751
155153M324277VENTURA GIUSEPPECASTELTROSINO SUPERBIKE03:34:27 01:25:00 16.647 11.751
156154M610220PERELLA GIOVANNIG.S. TESTI CICLI A.S.D.03:35:36 01:26:09 16.782 11.688
157155M521659MAURIZIO GIORGIOACIDO LATTICO MTB03:38:09 01:28:42 17.077 11.552
158156M433471EDERA VITTORIOA.S.DILETTANTISTICA XXV APRILE03:39:57 01:30:30 17.281 11.457
159157ELITE SPORT19144GIAMPICCOLO LUCAMTB CLUB SPOLETO03:42:27 01:33:00 17.559 11.328
160158M434251ROSSI BECCAFICO FRANCESCOG.S. TESTI CICLI A.S.D.03:42:28 01:33:01 17.560 11.328
161159M522143GENTILI FEDERICOGREEN CLUB03:42:30 01:33:03 17.564 11.326
162160M OVER4225PETRIOLI GIAMPAOLOMTB CLUB SPOLETO03:43:55 01:34:28 17.719 11.254
163161M435480GETTI MORISINDIVIDUALE03:43:57 01:34:30 17.722 11.253
164162M223257SANZARI VITTORIOMTB CLUB SPOLETO03:51:14 01:41:47 18.487 10.898
1653W21477D'ELISO ANNALISAASD MA.AN.RT03:51:57 01:42:30 18.560 10.864
166163M12197CIAMBELLI DAVIDEUMBERTIDE CYCLING TEAM03:53:08 01:43:41 18.679 10.809
167164M436472CALTANA FABRIZIOA.S.DILETTANTISTICA XXV APRILE03:53:09 01:43:42 18.680 10.809
168165M32579BORZACCHIELLO GIUSEPPEFREEBIKE MARSCIANO ASD03:54:44 01:45:17 18.837 10.736
169166M OVER5479FAINA GRAZIANOTRIONO RACING MEDICAL FREM03:58:00 01:48:33 19.155 10.588
170167M326118DIONISI MASSIMILIANOASD FARAM CYCLING TEAM04:04:08 01:54:41 19.729 10.322
171168M224478TROIANI RIBERTOMTB CLUB SPOLETO04:04:09 01:54:42 19.731 10.322
172169M611272TESTA GIUSEPPECASTELTROSINO SUPERBIKE04:08:28 01:59:01 20.118 10.142
173170M437238PRESCIUTTI MATTEOG.S. TESTI CICLI A.S.D.04:30:24 02:20:57 21.893 9.320
174171M OVER6150GIORDANI MARCOMOUNTAN BIKE CLUB RIETI05:23:00 03:13:33 25.167 7.802
1754W22197MONTAGNINI ZOEMOUNTAN BIKE CLUB RIETI05:23:00 03:13:33 25.167 7.802
176172M52353ALIMENTI GIANLUIGIMTB CLUB SPOLETO06:00:00 03:50:33 26.897 7.000
1775W13265SOPRANZI LAURAASD SC CENTRO BICI TEAM TERNI06:00:00 03:50:33 26.897 7.000
178173M327206NICCACCI LEONARDOUC PETRIGNANO ASD06:00:00 03:50:33 26.897 7.000
179174M524131FIORUCCI FRANCESCOUC PETRIGNANO ASD06:00:00 03:50:33 26.897 7.000
180175M32856ALUNNO SELLERI LUCAUMBERTIDE CYCLING TEAM06:00:00 03:50:33 26.897 7.000
Righe per pagina::     TUTTE    |   30   |   50   |   100   Pagina:   | 1 | | 2 | | 3 | | 4 |